Presure
87 78 90 91 101 195 188 152 162 154 173 145 178 156 178 138 111 158 134 123 120 121 115 118 119 116 122 148 138 146 159 162 122
97 113 96 145 150 160 192 186 167 172 166 174 164 163 177 175 98 97 131 103 111 109 103 123 107 115 110 114 107 156 179 136 168
166 159 165 132 174 136 158 171 172 172 170 160 150 183 181 152 190 116 121 102 109 113 101 101 120 109 99 108 111 120 124 150 135
150 151 173 151 152 172 161 174 158 149 157 176 180 173 170 134 131 132 117 110 117 94 108 122 103 108 114 108 119 128 171 145 173
96 89 95 132 172 96 163 162 153 162 151 157 151 164 171 127 148 130 144 104 98 104 121 100 100 101 130 124 125 118 132 201 132
91 92 91 92 143 141 113 143 160 153 149 156 142 159 165 159 126 127 131 145 129 118 104 110 110 108 113 130 124 116 139 128 180
83 90 90 93 95 105 132 141 141 141 150 145 148 154 165 137 153 152 150 136 132 138 107 115 121 115 107 110 123 129 119 127 126
88 85 90 95 96 95 121 130 145 146 141 143 146 150 149 152 136 150 115 127 133 111 116 110 122 141 148 126 129 132 128 124 123
89 85 89 91 94 124 97 134 135 124 145 145 146 143 141 144 153 140 134 149 147 152 153 157 140 123 132 144 140 146 130 119 143
87 92 86 95 97 97 93 150 141 137 140 136 136 140 144 175 144 139 153 149 158 148 147 150 139 147 142 127 119 138 136 139 141
118 126 105 99 122 129 139 142 145 142 142 149 152 137 143 138 140 139 139 142 141 158 141 128 111 124 142 145 146 146 142 150 132
121 123 105 103 96 143 141 132 131 134 141 126 147 118 129 144 149 130 114 130 120 125 122 132 134 126 137 146 142 146 149 138 127
106 103 115 135 134 106 107 113 134 176 159 137 117 125 147 141 132 130 147 149 150 137 141 141 138 140 117 139 137 135 142 149 148
140 130 153 159 134 132 140 154 174 152 136 138 133 134 124 137 139 132 140 148 123 134 137 133 131 117 130 162 160 169 169 157 143
119 124 123 132 168 177 138 173 178 157 152 162 174 154 147 138 121 139 136 147 127 133 136 135 122 129 151 151 152 140 151 151 140
163 159 160 126 167 167 167 172 251 252 181 180 181 170 158 171 163 138 129 111 167 186 122 119 133 145 137 146 152 129 117 135 163
235 223 233 255 299 245 232 290 305 284 121 279 220 194 173 240 166 169 161 151 173 173 126 160 139 158 131 130 142 126 128 124 145
291 289 286 280 275 269 274 276 306 201 319 327 300 307 299 270 217 202 171 239 199 167 173 126 143 133 124 132 136 135 160 128 174
246 248 258 260 290 295 302 307 415 426 420 412 322 330 337 277 286 214 257 246 172 228 126 243 198 175 127 125 136 162 136 207 130
242 267 296 289 268 286 289 330 435 448 429 395 388 377 311 336 304 271 288 258 255 129 126 130 131 162 127 134 131 138 131 158 130
Wind_Speed
13 12 18 17 19 25 27 24 25 24 27 23 24 24 25 16 19 28 14 12 17 11 15 12 10 14 14 19 19 20 25 27 22
16 22 20 29 26 27 24 27 27 28 27 27 25 25 26 28 18 20 18 21 22 21 26 13 19 20 24 21 29 26 31 25 33
29 29 31 28 28 25 29 27 28 29 29 26 24 31 31 23 32 24 21 24 25 25 24 28 24 24 29 28 26 21 24 30 27
32 32 33 29 30 33 30 30 29 27 27 32 33 31 29 22 24 21 28 29 27 22 28 24 32 31 29 31 25 27 33 30 33
22 23 27 25 37 27 34 34 31 31 27 30 26 30 32 25 30 28 29 30 26 31 32 31 32 32 25 26 26 29 29 41 29
26 28 28 29 34 34 33 32 36 32 29 33 29 34 34 32 33 32 31 34 35 32 35 37 32 32 33 29 28 30 32 32 36
23 31 32 33 34 33 32 34 32 31 36 32 34 35 39 31 35 37 39 40 37 36 38 38 36 38 38 34 35 31 32 34 32
32 27 36 39 39 38 36 35 41 39 36 36 36 38 38 39 36 38 40 41 42 42 41 41 37 41 43 36 35 38 32 34 35
35 28 35 40 42 41 44 42 41 39 44 43 44 36 37 40 44 40 39 41 41 43 43 46 44 41 41 45 45 45 37 38 41
33 41 31 44 46 47 39 44 45 45 45 44 42 42 42 53 43 45 49 44 49 44 44 45 42 44 45 41 42 42 43 45 46
43 44 43 49 45 46 47 48 49 47 47 49 50 46 46 42 42 43 45 47 44 54 45 43 43 43 47 49 50 48 46 52 40
47 49 48 50 48 55 53 50 49 49 50 51 51 45 49 51 51 44 46 47 49 46 44 42 43 43 46 53 48 51 53 44 48
54 52 55 54 56 55 56 55 58 72 67 54 51 48 53 53 50 49 51 52 54 51 51 49 46 48 50 50 49 46 48 52 51
61 57 67 69 56 55 58 67 78 67 58 60 58 55 51 52 52 49 52 54 49 52 51 49 47 52 51 60 60 65 63 53 52
59 61 59 61 77 81 63 79 80 71 70 74 78 68 64 57 50 55 54 60 51 52 52 51 52 52 58 56 59 50 53 51 49
79 78 77 63 81 82 80 82 104 103 86 84 86 79 71 81 74 65 58 52 76 71 54 56 56 56 55 57 63 52 48 51 60
94 92 93 99 91 98 89 93 101 102 61 111 90 83 72 88 70 71 66 67 83 87 57 65 59 61 57 57 60 56 56 49 54
67 69 72 77 80 85 90 93 89 77 95 99 104 105 103 101 90 83 70 87 89 85 75 58 59 58 57 59 63 59 66 53 74
82 81 80 80 61 65 65 72 73 73 75 79 94 90 88 96 100 88 102 95 78 91 56 95 90 70 59 57 61 72 63 81 55
80 67 36 40 65 52 59 70 61 58 60 66 72 78 83 86 92 98 99 103 102 57 57 60 57 69 55 60 59 64 59 68 59
Wind_Direction
309 322 315 316 310 282 280 292 287 289 284 294 285 284 279 278 267 287 272 271 279 275 283 288 295 297 312 319 319 317 295 290 306
299 286 306 291 289 289 279 276 283 284 286 285 284 281 279 274 302 305 282 295 270 276 293 288 299 282 287 292 306 301 278 307 288
284 286 287 296 280 288 292 280 276 278 281 284 283 283 281 273 280 281 255 291 276 271 297 300 297 299 309 303 304 306 308 300 305
290 291 284 289 290 283 288 276 290 288 289 281 277 279 277 267 277 259 257 267 268 307 288 276 299 292 290 294 296 305 292 299 286
313 319 321 274 281 319 288 286 290 284 284 286 280 283 278 252 276 261 277 286 300 288 273 299 300 302 290 291 297 300 305 289 299
315 314 315 315 285 291 306 292 287 284 283 285 278 281 280 272 287 259 263 279 286 273 294 284 284 292 290 291 292 293 305 304 287
319 310 310 310 310 301 283 284 284 281 283 280 281 280 280 272 273 274 276 267 269 272 288 278 274 279 290 291 294 293 289 294 295
309 316 310 305 305 308 286 281 282 280 280 279 278 277 277 276 274 275 275 271 278 283 285 286 280 280 280 289 291 291 292 289 288
299 308 306 307 305 286 307 279 278 279 275 279 280 274 272 276 276 273 270 277 278 276 277 277 280 285 286 283 286 288 289 280 293
299 294 306 300 299 302 303 274 274 273 277 276 275 274 276 273 275 276 277 278 276 277 277 278 281 280 284 285 286 287 285 290 289
280 274 292 295 282 274 273 274 274 270 269 269 272 276 272 272 270 271 273 277 276 277 277 280 282 282 283 285 288 290 291 290 284
273 274 284 287 294 280 276 273 272 270 269 277 270 284 278 269 272 271 281 274 278 277 277 276 278 275 285 286 287 286 288 284 288
280 282 279 277 276 282 284 284 279 273 272 275 280 275 271 268 272 274 269 268 268 273 277 279 279 281 277 282 278 279 286 286 288
278 279 277 277 281 280 281 276 274 275 274 274 274 274 273 272 271 271 273 272 272 272 274 275 275 275 276 278 278 277 276 282 282
280 280 281 281 277 276 276 275 273 274 275 274 269 271 271 274 270 273 272 273 268 267 267 269 273 272 276 276 275 275 277 277 279
280 279 279 277 279 278 278 278 276 275 275 273 271 272 275 273 275 276 271 276 274 268 271 274 273 268 271 273 274 277 282 277 276
285 284 282 280 278 278 278 276 274 271 270 269 271 271 268 266 268 268 268 271 272 270 271 269 272 270 273 277 277 282 284 282 271
283 283 284 282 282 280 279 279 277 274 270 266 265 261 259 260 265 263 265 258 262 267 274 275 265 268 280 273 273 274 274 281 276
289 289 286 285 285 285 290 289 289 279 270 264 262 258 255 256 253 259 257 257 266 254 280 260 268 263 278 280 271 272 278 273 287
288 287 290 292 285 302 306 312 296 284 274 262 257 255 257 254 251 253 252 254 255 275 280 280 280 268 279 275 280 273 282 259 282